Regional Weather Roundup
Issued by NWS Kansas City/Pleasant Hill, MO

Home | Current Version | Previous Version | Graphics & Text | Print | Product List | Glossary Off
Versions: 1 2 3 4 5 6 7 8 9 10 11 12 13 14 15 16 17 18 19 20 21 22 23 24 25 26 27 28 29 30 31 32 33 34 35 36 37 38 39 40 41 42 43 44 45 46 47 48 49 50

000
ASUS43 KEAX 221410
RWREAX

WEATHER ROUNDUP FOR EASTERN KANSAS AND NORTHWEST MISSOURI
NATIONAL WEATHER SERVICE KANSAS CITY/PLEASANT HILL MO
900 AM CDT MON MAY 22 2017

KSZ040-057-103>105-MOZ028-029-037-043-221500-
...KANSAS CITY METROPOLITAN AREA...

CITY           SKY/WX    TMP DP  RH WIND       PRES   REMARKS
K.C. INTL      CLOUDY    65  54  67 SW10      30.05F
K.C. DOWNTOWN  MOSUNNY   67  52  58 SW9       30.04F
LEES SUMMIT    CLOUDY    66  54  65 SW10      30.07F
OLATHE - IXD   CLOUDY    63  54  72 SW10      30.08F
OLATHE - OJC   MOSUNNY   64  55  72 SW7       30.07F
LAWRENCE       PTSUNNY   64  55  72 S7        30.07F

$$

MOZ001>008-011>017-020>025-030>033-038>040-044>046-053-054-221500-
...NORTHERN AND CENTRAL MISSOURI...

CITY           SKY/WX    TMP DP  RH WIND       PRES   REMARKS
ST. JOSEPH     CLOUDY    59  54  83 SW7       30.04S
MOSBY          MOSUNNY   64  52  63 SW5       30.05F
WARRENSBURG    SUNNY     64  54  68 S10       30.09S
WHITEMAN AFB   MOSUNNY   64  59  83 SW12      30.08S
CLINTON        CLOUDY    61  55  82 S6        30.12R
SEDALIA        SUNNY     67  56  67 SW9       30.11R
WARSAW         NOT AVBL
CHILLICOTHE      N/A     60  52  74 S6        30.05F
KIRKSVILLE     SUNNY     63  48  58 SW12      30.05F

$$

MOZ041-047>049-056>058-063>065-088>090-097-221500-
...EASTERN AND SOUTHERN MISSOURI...

CITY           SKY/WX    TMP DP  RH WIND       PRES   REMARKS
ST. LOUIS INTL PTSUNNY   67  47  48 S9        30.13S
SPIRIT OF STL  MOSUNNY   62  53  72 CALM      30.12F
COLUMBIA       SUNNY     62  52  69 S9        30.11S
JEFFERSON CITY SUNNY     62  50  64 SE6       30.11F
ROLLA          SUNNY     62  52  69 S8        30.12S
OSAGE BEACH    SUNNY     61  52  72 S5        30.13F
SPRINGFIELD    CLOUDY    61  50  67 S13       30.14R
BRANSON        PTSUNNY   59  50  72 S7        30.16F
JOPLIN         SUNNY     67  55  65 S9        30.13F
WEST PLAINS    CLOUDY    60  47  61 SE5       30.16S

$$

IAZ060-094-KSZ022-034>040-054-083-096-NEZ052-066-093-221500-
...KANSAS...SOUTHEAST NEBRASKA AND IOWA...

CITY           SKY/WX    TMP DP  RH WIND       PRES   REMARKS
TOPEKA         CLOUDY    62  54  74 S8        30.06S
MANHATTAN      RAIN      57  56  96 S6        30.06R FOG
EMPORIA        CLOUDY    61  57  87 SW5       30.09R
CHANUTE        CLOUDY    66  55  67 SW12      30.11S
WICHITA        CLOUDY    61  55  81 S8        30.09S
OMAHA          CLOUDY    63  48  58 W8        29.95F
LINCOLN        CLOUDY    59  50  72 W6        29.98F
FALLS CITY     LGT RAIN  58  55  90 S5        30.00F
LAMONI         CLOUDY    57  49  74 S9        29.99F
DES MOINES     PTSUNNY   62  46  55 SW18      29.93F

$$




USA.gov is the U.S. government's official web portal to all federal, state and local government web resources and services.